Tracking 28920 objects as of 24-May-2024
HD Live streaming from Space Station
objects crossing your sky now

STARLINK-1880

Track STARLINK-1880 now!
10-day predictions
STARLINK-1880 is classified as:


NORAD ID: 47165
Int'l Code: 2020-088AV
Perigee: 553.8 km
Apogee: 555.0 km
Inclination: 53.1 °
Period: 95.6 minutes
Semi major axis: 6925 km
RCS: Unknown
Launch date: November 25, 2020
Source: United States (US)
Launch site: AIR FORCE EASTERN TEST RANGE (AFETR)
Your satellite tracking list
Your tracking list is empty




NASA's NSSDC Master Catalog

Two Line Element Set (TLE):
1 47165U 20088AV  24145.48252813 -.00002963  00000-0 -18012-3 0  9997
2 47165  53.0547 358.4655 0000880 109.3691 250.7393 15.06395454193486
Source of the keplerian elements: AFSPC